Home > Weather > Sidney > Past weeks

Flag for USA Past Weather in Sidney, Montana, USA — Yesterday and Last 2 Weeks

Now
61 °F

Clear.


Feels Like: 61 °F
Forecast: 57 / 88 °F
Wind: 3 mph from Northwest

Location: Sidney-Richland

Current Time: Jul 29, 2016 at 11:29:08 PM

Latest Report: Jul 29, 2016 at 10:56 PM


Visibility: 10 mi

Pressure: 29.96 "Hg (27.94 "Hg at 591m altitude)

Humidity: 60%

Dew Point: 47 °F

Location of SidneyLocation

Past Weather in Sidney — Graph

°F

Sidney Temperature Yesterday

Maximum temperature yesterday: 78 °F (at 2:56 PM)
Minimum temperature yesterday: 60 °F (at 1:56 AM)
Average temperature yesterday: 69 °F

High & Low Weather Summary for the Past Weeks

 TemperatureHumidityPressure
High98 °F (Jul 19, 4:56 PM)100% (Jul 15, 6:56 AM)30.17 "Hg (Jul 15, 6:56 AM)
Low47 °F (Jul 15, 4:56 AM)20% (Jul 29, 4:56 PM)29.76 "Hg (Jul 22, 7:56 PM)
Average72 °F65%29.98 "Hg
* Reported Jul 14 9:56 PM — Jul 29 9:56 PM, Sidney, Weather by CustomWeather, © 2016

Note: Actual official high and low records may vary slightly from our data, if they occured in-between our weather recording intervals... More about our weather records

Advertising

Sidney Weather History for the Previous 24 Hours

Scroll right to see more
 ConditionsComfort  
Time TempWeatherWind HumidityBarometerVisibility
9:56 PM
Fri, Jul 29
64 °FClear.No wind56%29.95 "Hg10 mi
8:56 PM66 °FSunny.No wind54%29.95 "Hg10 mi
7:56 PM77 °FSunny.3 mph42%29.94 "Hg10 mi
6:56 PM80 °FSunny.5 mph28%29.95 "Hg10 mi
5:56 PM80 °FSunny.No wind29%29.97 "Hg10 mi
4:56 PM79 °FScattered clouds.5 mph20%29.98 "Hg10 mi
3:56 PM78 °FScattered clouds.3 mph27%30.00 "Hg10 mi
2:56 PM79 °FSunny.5 mph28%30.01 "Hg10 mi
1:56 PM77 °FPassing clouds.5 mph44%30.03 "Hg10 mi
12:56 PM75 °FSunny.No wind47%30.04 "Hg10 mi
11:56 AM71 °FSunny.5 mph73%30.06 "Hg10 mi
10:56 AM65 °FLow clouds.6 mph87%30.08 "Hg10 mi
9:56 AM62 °FFog.6 mph93%30.09 "Hg5 mi
8:56 AM60 °FFog.5 mph93%30.10 "Hg1 mi
7:56 AM60 °FScattered clouds.3 mph90%30.09 "Hg10 mi
6:56 AM55 °FFog.3 mph96%30.10 "Hg0 mi
6:02 AM54 °FFog.5 mph94%30.09 "Hg1 mi
5:56 AM52 °FFog.5 mph97%30.09 "Hg3 mi
4:56 AM52 °FClear.3 mph93%30.09 "Hg10 mi
3:56 AM54 °FClear.No wind93%30.09 "Hg10 mi
2:56 AM54 °FClear.No wind93%30.10 "Hg10 mi
1:56 AM56 °FClear.No wind93%30.12 "Hg10 mi
12:56 AM58 °FClear.No wind93%30.12 "Hg10 mi
11:56 PM
Thu, Jul 28
61 °FClear.5 mph87%30.12 "Hg10 mi
Weather by CustomWeather, © 2016

See weather overviewHow to use our weather pages